[[{"header":{"parameterUnit":"m.s-1","parameterCategory":1,"la1":30.2991,"la2":30.254,"lo1":-89.0895,"lo2":-89.0444,"dx":0.0017,"dy":0.0017,"nx":28,"ny":28,"refTime":"2022-11-12T09:00:00:Z","depth":0,"parameterNumber":2,"parameterNumberName":"U-component_of_WINDS"},"data":[0,0,0,0,0,0,0,0,0,0,0,0,0,0,0,0,0,0,0,0,0,0,0,0,0,0,0,0,0,0,0,0,0,0,0,0,0,0,0,0,0,0,0,0,0,0,0,0,0,0,0,0,0,0,0,0,0,0,1.3286,1.3288,0,1.3506,1.3509,1.3511,1.3514,1.3511,1.3508,1.3505,1.3737,1.3746,1.3755,0,0,0,0,0,0,0,0,0,0,0,0,0,1.2875,1.2882,1.3286,1.3289,1.3291,1.3506,1.3509,1.3512,1.3514,1.3511,1.3507,1.3504,1.3734,1.3745,1.3755,0,0,0,0,0,0,0,0,0,0,0,0,0,1.307,1.2885,1.3285,1.3318,1.3323,1.3505,1.3509,1.3513,1.3515,1.3511,1.3506,1.3502,1.3731,1.3744,1.3757,1.3923,0,0,1.3797,1.3803,0,0,0,0,0,0,0,0,1.3059,1.3085,1.3311,1.3316,1.3322,1.3478,1.3449,1.3651,1.3516,1.3442,1.3505,1.35,1.3655,1.3674,1.3725,1.3934,1.3944,1.3798,1.3806,1.3812,1.3816,0,0,0,0,0,0,0,1.3046,1.3076,1.3373,1.3314,1.3321,1.3324,1.3347,1.3487,1.357,1.3448,1.3449,1.3475,1.3657,1.3712,1.373,1.3947,1.3798,1.381,1.3818,1.3823,1.4308,1.4312,0,0,0,0,0,0,1.3024,1.3064,1.3366,1.338,1.3177,1.3335,1.3361,1.3432,1.3568,1.3585,1.3478,1.3474,1.3692,1.3715,1.3739,1.3945,1.3812,1.3824,1.3832,1.4303,1.4309,1.4314,0,0,0,0,0,0,1.3016,1.3051,1.3357,1.3223,1.3262,1.3347,1.3427,1.3439,1.3494,1.3591,1.3606,1.3519,1.3689,1.372,1.3878,1.3953,1.383,1.3842,1.4297,1.4305,1.4311,1.4358,0,0,0,0,0,0,1.3004,1.3048,1.311,1.3224,1.3269,1.3491,1.3431,1.3446,1.3516,1.3512,1.3633,1.3649,1.3688,1.3858,1.3891,1.3969,1.3853,1.4291,1.43,1.4309,1.435,1.4366,1.4379,0,0,0,0,0,1.2989,1.3115,1.3113,1.315,1.3348,1.3495,1.3521,1.3562,1.3522,1.3587,1.3649,1.3645,1.3939,1.3874,1.3911,1.3995,1.4286,1.4298,1.4308,1.4343,1.4363,1.4379,0,0,0,0,0,0,1.301,1.313,1.313,1.3296,1.3385,1.3495,1.3578,1.3581,1.3685,1.3678,1.3726,1.3754,1.3912,1.3968,1.3894,1.4164,1.4108,1.4127,1.4122,1.4141,1.4155,1.414,1.3864,0,0,0,0,0,1.3033,1.314,1.324,1.3377,1.3422,1.3492,1.3557,1.3582,1.3677,1.3715,1.3789,1.3884,1.3998,1.4072,1.4182,1.4357,1.4386,1.4433,1.4448,1.4459,1.4476,1.4577,1.4601,1.4351,1.4351,1.435,0,0,1.3084,1.3163,1.3228,1.3384,1.3455,1.3568,1.3524,1.3644,1.3729,1.3734,1.3888,1.3945,1.4054,1.4222,1.43,1.4275,1.4551,1.4473,1.4482,1.4493,1.4591,1.4615,1.4636,1.4358,1.4357,1.4356,0,0,1.3234,1.3303,1.3426,1.3499,1.3608,1.3654,1.3683,1.3793,1.3832,1.3986,1.3993,1.4096,1.429,1.4368,1.4434,1.4615,1.4617,1.465,1.4728,1.4826,1.4846,1.4864,1.4932,1.4956,1.4666,1.4666,1.4666,0,1.3284,1.3452,1.3489,1.3611,1.3681,1.3688,1.3816,1.3885,1.4025,1.4075,1.4043,1.4289,1.4363,1.4551,1.4596,1.4647,1.4686,1.4638,1.4839,1.4858,1.4875,1.4941,1.4966,1.4669,1.4669,1.4668,1.4668,0,1.351,1.3626,1.3713,1.3847,1.3926,1.405,1.4109,1.4186,1.4203,1.4253,1.4413,1.4501,1.4631,1.4676,1.4695,1.4869,1.485,1.4828,1.4774,1.4902,1.4965,1.499,1.4674,1.4673,1.4672,1.4671,0,0,1.3681,1.3834,1.3866,1.3928,1.4049,1.4141,1.4266,1.4391,1.4458,1.4554,1.4663,1.4828,1.4809,1.4883,1.4911,1.4996,1.5139,1.4965,1.4968,1.4998,1.5342,1.536,1.5388,1.5139,1.5144,1.5148,1.5334,0,1.3847,1.4068,1.4106,1.4301,1.4411,1.442,1.453,1.4617,1.4668,1.4771,1.4827,1.4945,1.4909,1.4955,1.5039,1.5104,1.521,1.509,1.5246,1.5251,1.5222,1.5421,1.544,1.5611,1.5358,1.5363,1.5366,0,1.4071,1.4172,1.4377,1.4485,1.4533,1.4631,1.475,1.4847,1.4948,1.4979,1.5062,1.508,1.5214,1.5151,1.5338,1.5256,1.5322,1.5364,1.5371,1.5391,1.5319,1.545,1.5666,1.5693,1.5404,1.5401,1.5398,0,1.418,1.4367,1.4515,1.4568,1.4697,1.4766,1.4823,1.492,1.4993,1.5098,1.5147,1.5267,1.5333,1.5427,1.5478,1.5426,1.5664,1.5603,1.5697,1.5696,1.575,1.5746,1.5984,1.5785,1.5785,1.5784,1.5784,0,1.4364,1.449,1.4566,1.4658,1.48,1.4844,1.4985,1.5042,1.5128,1.5233,1.5247,1.5346,1.5405,1.5514,1.5555,1.5707,1.5736,1.5767,1.5778,1.5769,1.5765,1.5815,1.5806,1.5791,1.579,1.5788,1.5787,0,1.4512,1.4567,1.473,1.4838,1.4868,1.4969,1.5064,1.5155,1.5204,1.5338,1.5371,1.5451,1.558,1.5639,1.5798,1.5825,1.6,1.5999,1.5965,1.597,1.6062,1.6054,1.6344,1.6386,1.6155,1.6157,1.6158,0,1.4627,1.4725,1.4843,1.4914,1.4973,1.5086,1.5161,1.5208,1.5286,1.541,1.5487,1.5615,1.5721,1.5927,1.6001,1.6124,1.6129,1.6222,1.6148,1.6137,1.6136,1.6131,1.6144,1.6237,1.6239,1.6241,1.6242,0,1.4828,1.4851,1.4957,1.5075,1.5163,1.5258,1.5351,1.5409,1.5471,1.5559,1.569,1.5771,1.5934,1.6063,1.6191,1.6254,1.6261,1.6264,1.6294,1.6288,1.6266,1.6283,1.6006,1.6259,1.6257,1.6256,1.6255,1.6254,1.4967,1.5055,1.5153,1.5272,1.5346,1.5433,1.5525,1.5586,1.5695,1.583,1.5851,1.5992,1.6093,1.6266,1.6333,1.6446,1.6424,1.6465,1.6476,1.6487,1.6494,1.6244,1.6469,1.6468,1.6468,1.6468,1.6467,0,1.5172,1.5235,1.5344,1.5474,1.5568,1.5562,1.5666,1.5747,1.5869,1.5962,1.6065,1.6218,1.6343,1.6427,1.6555,1.663,1.6637,1.6662,1.666,1.6675,1.6504,1.6468,1.6655,1.6655,1.6655,1.6655,1.6655,1.6655,1.529,1.544,1.5475,1.5663,1.5726,1.5863,1.5923,1.6005,1.6079,1.6248,1.6352,1.6404,1.6495,1.663,1.6747,1.6768,1.6817,1.6844,1.6866,1.6706,1.6686,1.6668,1.6635,1.6853,1.6854,1.7028,1.703,1.7031]},{"header":{"parameterUnit":"m.s-1","parameterCategory":1,"la1":30.2991,"la2":30.254,"lo1":-89.0895,"lo2":-89.0444,"dx":0.0017,"dy":0.0017,"nx":28,"ny":28,"refTime":"2022-11-12T09:00:00:Z","depth":0,"parameterNumber":3,"parameterNumberName":"V-component_of_WINDS"},"data":[0,0,0,0,0,0,0,0,0,0,0,0,0,0,0,0,0,0,0,0,0,0,0,0,0,0,0,0,0,0,0,0,0,0,0,0,0,0,0,0,0,0,0,0,0,0,0,0,0,0,0,0,0,0,0,0,0,0,0.1868,0.1869,0,0.1975,0.1976,0.1977,0.196,0.1958,0.1957,0.1955,0.2071,0.2076,0.208,0,0,0,0,0,0,0,0,0,0,0,0,0,0.1656,0.166,0.1868,0.1869,0.1871,0.1975,0.1976,0.1978,0.1961,0.1958,0.1956,0.1954,0.2069,0.2075,0.2081,0,0,0,0,0,0,0,0,0,0,0,0,0,0.1754,0.1661,0.1868,0.1875,0.1876,0.1975,0.1976,0.1978,0.1961,0.1958,0.1956,0.1953,0.2067,0.2074,0.2082,0.2182,0,0,0.2104,0.2107,0,0,0,0,0,0,0,0,0.1749,0.1762,0.1872,0.1874,0.1876,0.1951,0.1944,0.2047,0.1962,0.1929,0.1955,0.1952,0.2034,0.2044,0.207,0.2187,0.2192,0.2104,0.2109,0.2112,0.2114,0,0,0,0,0,0,0,0.1742,0.1758,0.1911,0.1874,0.1877,0.1875,0.1885,0.1963,0.1996,0.1932,0.1931,0.1943,0.2034,0.2063,0.2073,0.2194,0.2104,0.2111,0.2115,0.2118,0.2402,0.2405,0,0,0,0,0,0,0.1732,0.1752,0.1907,0.1914,0.1804,0.1881,0.1893,0.193,0.1995,0.2002,0.1946,0.1942,0.2052,0.2064,0.2077,0.2201,0.2112,0.2119,0.2123,0.2398,0.2402,0.2406,0,0,0,0,0,0,0.1728,0.1746,0.1903,0.1833,0.1852,0.1887,0.1929,0.1934,0.1962,0.2005,0.2012,0.1968,0.205,0.2066,0.2156,0.2204,0.2122,0.2128,0.2395,0.24,0.2404,0.2448,0,0,0,0,0,0,0.1722,0.1745,0.1782,0.1833,0.1856,0.1979,0.1932,0.1938,0.1974,0.1971,0.2029,0.2036,0.2049,0.2145,0.2163,0.2213,0.2134,0.2391,0.2397,0.2402,0.2442,0.2454,0.2463,0,0,0,0,0,0.1714,0.1791,0.1784,0.1803,0.1903,0.1981,0.1995,0.2007,0.1978,0.2017,0.2044,0.2034,0.2195,0.2155,0.2175,0.2227,0.2388,0.2395,0.2402,0.2438,0.2451,0.2463,0,0,0,0,0,0,0.1746,0.1798,0.179,0.1885,0.1929,0.1978,0.2028,0.2021,0.2075,0.207,0.2085,0.2099,0.219,0.2217,0.2171,0.2329,0.2288,0.2299,0.2308,0.2321,0.2332,0.2325,0.214,0,0,0,0,0,0.1764,0.1821,0.1864,0.1944,0.1966,0.1993,0.2028,0.2033,0.208,0.2099,0.2133,0.2181,0.2242,0.2283,0.2342,0.2445,0.2459,0.2491,0.2502,0.251,0.2521,0.258,0.2596,0.2429,0.2429,0.2429,0,0,0.1802,0.1837,0.1873,0.1951,0.1985,0.2047,0.2009,0.2075,0.2122,0.211,0.2197,0.2223,0.2277,0.2375,0.2419,0.24,0.2569,0.2519,0.2525,0.2532,0.2589,0.2605,0.2619,0.2434,0.2433,0.2433,0,0,0.1903,0.1934,0.2005,0.204,0.2092,0.2109,0.2126,0.2176,0.2193,0.228,0.2273,0.2329,0.2434,0.2474,0.2508,0.2624,0.2617,0.2642,0.2699,0.2756,0.2769,0.2781,0.2826,0.2841,0.2652,0.2653,0.2653,0,0.1945,0.2035,0.2043,0.2111,0.2147,0.2135,0.2209,0.2243,0.2313,0.2339,0.2315,0.2448,0.2483,0.2591,0.262,0.2646,0.2669,0.2638,0.2766,0.2778,0.2789,0.2832,0.2849,0.2656,0.2655,0.2655,0.2655,0,0.2085,0.2148,0.22,0.2265,0.2306,0.2377,0.2397,0.2439,0.244,0.2461,0.2551,0.2593,0.2661,0.2686,0.2689,0.2795,0.2782,0.2762,0.2722,0.2808,0.2849,0.2865,0.266,0.2659,0.2658,0.2657,0,0,0.2212,0.228,0.2299,0.2329,0.2385,0.2436,0.2506,0.257,0.2607,0.2655,0.2717,0.2806,0.2788,0.2826,0.2834,0.2884,0.2977,0.2858,0.286,0.2882,0.31,0.3117,0.3135,0.2971,0.2974,0.2976,0.3096,0,0.2321,0.2444,0.2453,0.2565,0.2625,0.2615,0.2677,0.2719,0.274,0.2796,0.282,0.2884,0.2854,0.2877,0.2926,0.2955,0.3021,0.2946,0.3032,0.3035,0.3022,0.3156,0.3174,0.3285,0.3112,0.3114,0.3116,0,0.2465,0.2516,0.2633,0.2682,0.2708,0.2763,0.2824,0.2876,0.2924,0.2936,0.2979,0.2979,0.3055,0.3009,0.3115,0.3063,0.3099,0.3118,0.3123,0.3135,0.3084,0.3175,0.3321,0.3339,0.3141,0.3139,0.3137,0,0.255,0.2647,0.2731,0.2757,0.2815,0.2854,0.2881,0.2926,0.2965,0.3018,0.3044,0.3106,0.3141,0.319,0.3209,0.3173,0.3315,0.327,0.333,0.333,0.3363,0.3362,0.3521,0.338,0.338,0.338,0.3379,0,0.2673,0.2746,0.277,0.2822,0.2904,0.2914,0.2996,0.3021,0.3061,0.312,0.3114,0.317,0.3188,0.3248,0.3262,0.335,0.3364,0.3379,0.3383,0.3381,0.338,0.3408,0.3402,0.3384,0.3383,0.3382,0.3381,0,0.2783,0.2801,0.2892,0.2939,0.2952,0.3011,0.3053,0.3104,0.3123,0.3197,0.3215,0.3247,0.3316,0.3338,0.3422,0.3432,0.3535,0.353,0.3518,0.352,0.358,0.3575,0.3765,0.3792,0.363,0.3632,0.3633,0,0.2862,0.2918,0.297,0.3008,0.3035,0.3096,0.3135,0.3147,0.3189,0.3248,0.3293,0.3361,0.3417,0.3529,0.3561,0.3626,0.3625,0.3686,0.3635,0.3632,0.363,0.3628,0.3635,0.3698,0.3699,0.3701,0.3702,0,0.3001,0.3007,0.3063,0.3122,0.3168,0.3216,0.3262,0.3293,0.3313,0.336,0.343,0.3472,0.3558,0.3627,0.3693,0.3723,0.3718,0.3717,0.3735,0.3737,0.3729,0.3737,0.3549,0.3714,0.3713,0.3712,0.3711,0.3711,0.3101,0.3151,0.3195,0.3258,0.3293,0.3336,0.3387,0.3412,0.347,0.3539,0.3543,0.362,0.3668,0.3756,0.3789,0.3851,0.3834,0.3859,0.3866,0.3873,0.3879,0.3716,0.3863,0.3862,0.3862,0.3862,0.3861,0,0.3243,0.3271,0.3328,0.3391,0.3441,0.3427,0.3478,0.3522,0.3588,0.3633,0.3687,0.3769,0.3836,0.3872,0.3939,0.3982,0.3982,0.4,0.3999,0.4007,0.3889,0.3869,0.3999,0.3999,0.3999,0.3999,0.3999,0.3999,0.3323,0.3407,0.3419,0.3522,0.355,0.3623,0.3654,0.3694,0.373,0.3821,0.3876,0.3898,0.3941,0.4011,0.4073,0.4082,0.4109,0.413,0.4138,0.4028,0.4014,0.4001,0.3982,0.4134,0.4134,0.425,0.4251,0.4252]}]]